Location: West Cummington
(42.4920°N, 72.9680°W)
Time: 12:01:07
(UTC-04:00)

ATLAS 2AS CENTAUR R/B - Visible Passes

Search period start: 25 October 2014 00:00
Search period end: 03 November 2014 23:00
Orbit: 917 x 1296 km, 63.7° (Epoch: 19 October)

Date Brightness Start Highest point End Pass type
(mag) Time Alt. Az. Time Alt. Az. Time Alt. Az.
25 Oct 5.3 02:06:26 14° NNE 02:06:26 14° NNE 02:08:12 10° NNE visible
25 Oct 5.1 03:53:53 13° NNW 03:57:34 17° NNE 04:02:26 10° NE visible
25 Oct 4.4 05:44:01 10° NNW 05:51:17 35° NE 05:58:27 10° ESE visible
26 Oct 5.6 01:23:14 10° NNE 01:23:14 10° NNE 01:23:17 10° NNE visible
26 Oct 5.1 03:10:41 15° N 03:11:49 16° N 03:16:18 10° NE visible
26 Oct 4.7 04:59:19 10° NNW 05:05:57 27° NNE 05:12:33 10° E visible
27 Oct 5.2 02:27:33 15° N 02:27:33 15° N 02:30:31 10° NNE visible
27 Oct 4.9 04:15:00 11° NNW 04:20:28 22° NNE 04:26:24 10° ENE visible
27 Oct 3.7 06:05:23 10° NNW 06:13:22 57° NE 06:21:08 10° SE visible
28 Oct 5.5 01:44:27 12° NNE 01:44:27 12° NNE 01:45:09 10° NNE visible
28 Oct 5.0 03:31:54 15° N 03:34:52 18° NNE 03:40:06 10° ENE visible
28 Oct 4.1 05:20:42 10° NNW 05:28:17 42° NE 05:35:44 10° ESE visible
29 Oct 5.1 02:48:52 16° N 02:49:10 16° N 02:53:51 10° NE visible
29 Oct 4.5 04:36:20 11° NNW 04:43:03 31° NE 04:50:01 10° E visible
29 Oct 3.1 06:26:53 10° NW 06:35:01 84° WSW 06:42:53 10° SSE visible
30 Oct 5.4 02:05:55 13° NNE 02:05:55 13° NNE 02:07:50 10° NE visible
30 Oct 4.8 03:53:23 16° NNW 03:57:40 25° NNE 04:04:00 10° E visible
30 Oct 3.3 05:42:07 10° NNW 05:50:13 70° NE 05:58:05 10° SE visible
31 Oct 4.9 03:10:31 19° N 03:12:08 20° NNE 03:17:47 10° ENE visible
31 Oct 3.8 04:58:00 12° NNW 05:05:15 50° NE 05:12:54 10° ESE visible
31 Oct 3.4 06:48:42 10° NW 06:56:17 45° WSW 07:03:35 10° S visible
31 Oct 4.6 20:40:21 10° SSW 20:41:43 17° S 20:41:43 17° S visible
01 Nov 5.2 02:27:47 17° NNE 02:27:47 17° NNE 02:31:29 10° NE visible
01 Nov 4.2 04:15:16 20° NNW 04:20:07 37° NE 04:27:23 10° ESE visible
01 Nov 3.1 06:03:42 10° NW 06:11:43 68° WSW 06:19:28 10° SSE visible
01 Nov 3.9 19:56:30 10° S 19:59:48 26° SSE 19:59:48 26° SSE visible
01 Nov 5.0 21:46:21 10° SW 21:47:21 15° WSW 21:47:21 15° WSW visible
02 Nov 5.6 01:45:10 10° NE 01:45:10 10° NE 01:45:18 10° NE visible
02 Nov 4.6 02:32:40 25° N 02:34:49 28° NNE 02:41:32 10° E visible
02 Nov 3.1 04:20:10 16° NW 04:27:01 85° NE 04:34:54 10° SE visible
02 Nov 3.9 18:13:19 10° SSE 18:17:52 22° ESE 18:17:52 22° ESE visible
02 Nov 3.8 20:01:23 10° SW 20:05:24 38° SW 20:05:24 38° SW visible
03 Nov 4.9 01:50:12 22° NE 01:50:12 22° NE 01:55:25 10° ENE visible
03 Nov 3.4 03:37:43 29° NNW 03:42:08 61° NE 03:49:57 10° SE visible
03 Nov 3.6 05:25:44 10° NW 05:32:50 35° WSW 05:39:42 10° S visible
03 Nov 4.3 17:31:29 10° SE 17:34:21 13° E 17:35:51 12° E visible
03 Nov 2.8 19:16:47 10° SSW 19:23:23 69° SE 19:23:23 69° SE visible
03 Nov 4.9 21:08:55 10° W 21:10:55 18° W 21:10:55 18° W visible
